Flag for Denmark Weather past 2 weeks in Kolding, Denmark

Now
48 °F

Passing clouds.


Feels Like: 48 °F
Forecast: 51 / 55 °F
Wind: 2 mph from West

Location: Skrydstrup

Current Time: Oct 23, 2014 at 4:05:14 AM

Latest Report: Oct 23, 2014 at 3:20 AM


Visibility: N/A

Pressure: 30.04 "Hg

Humidity: 94%

Dew point: 46 °F

Location of KoldingLocation

Historic Weather in Kolding — Graph

°F

Kolding temperature yesterday

Maximum temperature yesterday: 59 °F (at 1:20 PM)
Minimum temperature yesterday: 39 °F (at 6:54 AM)
Average temperature yesterday: 49 °F

Past Weeks' High & Low Weather Summary

 TemperatureHumidityPressure
High64 °F (Oct 11, 1:50 PM)100% (Oct 9, 12:20 AM)30.09 "Hg (Oct 9, 12:20 AM)
Low39 °F (Oct 22, 6:54 AM)63% (Oct 12, 2:50 PM)29.27 "Hg (Oct 21, 5:50 PM)
Average54 °F92%29.75 "Hg
* Reported Oct 8 2:20 AM — Oct 23 2:50 AM, Kolding, Weather by CustomWeather, © 2014

Note: Actual official high and low records may vary slightly from our data, if they occured in-between our weather recording intervals... More about our weather records

Advertising

Kolding weather history for previous 24 hours

 ConditionsComfort  
Time TempWeatherWind HumidityBarometerVisibility
2:50 AM
Oct 23
50 °FPassing clouds.5 mph88%30.04 "HgN/A
2:20 AM50 °FPassing clouds.5 mph94%30.04 "HgN/A
1:50 AM50 °FPartly cloudy.3 mph94%30.04 "HgN/A
1:20 AM50 °FPartly cloudy.7 mph94%30.04 "HgN/A
12:50 AM50 °FPartly cloudy.10 mph94%30.04 "HgN/A
12:20 AM50 °FPassing clouds.8 mph94%30.01 "HgN/A
11:50 PM
Oct 22
50 °FPassing clouds.9 mph94%30.01 "HgN/A
11:20 PM50 °FPassing clouds.10 mph100%29.98 "HgN/A
10:50 PM50 °FPassing clouds.10 mph100%30.01 "HgN/A
10:20 PM50 °FPartly cloudy.10 mph100%29.98 "HgN/A
9:50 PM52 °FPartly cloudy.9 mph94%29.98 "Hg5 mi
9:20 PM52 °FPartly cloudy.9 mph94%29.95 "Hg5 mi
8:50 PM52 °FSprinkles. Partly cloudy.9 mph94%29.95 "Hg5 mi
8:20 PM52 °FPartly cloudy.8 mph94%29.95 "HgN/A
7:50 PM52 °FPartly cloudy.7 mph94%29.92 "HgN/A
7:20 PM52 °FPartly cloudy.8 mph94%29.92 "HgN/A
6:50 PM52 °FPartly sunny.6 mph94%29.89 "HgN/A
6:20 PM52 °FBroken clouds.8 mph94%29.89 "HgN/A
5:50 PM54 °FBroken clouds.9 mph88%29.89 "HgN/A
5:21 PM54 °FBroken clouds.9 mph94%29.86 "HgN/A
4:20 PM55 °FBroken clouds.13 mph88%29.83 "HgN/A
3:50 PM55 °FPartly sunny.9 mph88%29.83 "HgN/A
3:20 PM55 °FPartly sunny.10 mph88%29.80 "HgN/A
2:50 PM59 °FScattered clouds.9 mph72%29.80 "HgN/A
2:20 PM57 °FScattered clouds.10 mph77%29.77 "HgN/A
1:50 PM59 °FScattered clouds.8 mph77%29.77 "HgN/A
1:20 PM59 °FPassing clouds.7 mph72%29.77 "HgN/A
12:50 PM57 °FPassing clouds.6 mph77%29.74 "HgN/A
12:20 PM55 °FPassing clouds.6 mph88%29.74 "HgN/A
11:50 AM55 °FScattered clouds.7 mph88%29.71 "HgN/A
11:20 AM52 °FScattered clouds.6 mph94%29.71 "HgN/A
10:50 AM50 °FScattered clouds.6 mph94%29.68 "HgN/A
10:20 AM50 °FPartly sunny.5 mph94%29.65 "HgN/A
9:50 AM46 °FScattered clouds.2 mph100%29.65 "HgN/A
9:20 AM45 °FFog.5 mph100%29.62 "HgN/A
8:58 AM43 °FFog.1 mph100%29.59 "HgN/A
8:20 AM43 °FFog.3 mph100%29.56 "HgN/A
7:50 AM41 °FLight fog.2 mph100%29.53 "Hg1 mi
7:20 AM41 °FLight fog.1 mph100%29.50 "Hg1 mi
6:54 AM39 °FFog.3 mph100%29.50 "Hg1 mi
6:20 AM43 °FLight fog.2 mph100%29.47 "Hg1 mi
6:04 AM43 °FLight fog.2 mph100%29.45 "Hg1 mi
5:50 AM41 °FFog.No wind100%29.45 "Hg0 mi
5:20 AM43 °FLight fog.2 mph93%29.45 "HgN/A
4:50 AM43 °FFog.2 mph100%29.45 "HgN/A
4:20 AM45 °FPassing clouds.3 mph100%29.42 "HgN/A
Weather by CustomWeather, © 2014

See weather overviewHow to use our weather pages